Showing default

PACE, 40022

Orbit data source: Space-Track

PACE, 40022 is a Taiwanese payload satellite in SSO that was launched on Thu, 19 Jun 2014 UTC via a DNEPR launch vehicle from the Orenburg, Russia (OREN). Payload-class satellites include a variety of spacecraft equipped with specific instruments for various scientific and technological missions. These include communications satellites like Starlink; space stations such as the ISS; scientific satellites like the Hubble; Earth observation satellites from companies like Planet Labs, Umbra, and HawkEye 360; GPS; miniature CubeSats for education and research; and military/defense satellites.

Loading next visibility...
Identifier
40022, 2014-033N
Orbit
SSO
Country
Flag of TWTW / TWN
Related business
Manufacturer
NCKU
Mission
Non-operational Commercial Technology
Bus & Motor
CUBESAT 2U, Unknown motor
Mass
2 kg wet, 2 kg dry
Launch date (UTC)
2014-06-19 (11 years ago)
Launch vehicle
DNEPR
Launch site
Orenburg, Russia (OREN)
Object type
Payload
Rocket body
Debris
Shape & HBR
Box, 0.1 m
Radar Cross Section
0.057 m², Small (<0.1 m²)

Expand to show TLE details & history
Last TLE update: 13 hours ago

TLE from 13 hours ago
0 PACE
1 40022U 14033N   25299.51019456  .00008403  00000-0  55729-3 0  9993
2 40022  98.1159 285.6859 0004945 297.2509  62.8214 15.07535306617789
Epoch: 2025-10-26T12:14Z
TLE epoch observation values (Epoch: 2025-10-26T12:14:40.809Z)
Latitude
0.00002°
Longitude
66.8905°
Altitude
545.224 km
Speed
7.59 km/s
True Right ascension
19h 02m 44s
True Declination
0° 00' 00"
Sunlit
Object was in daylight at epoch
Visualization orbit readout
Latitude
Unknown
Longitude
Unknown
Altitude
Unknown
Speed
Unknown
Apparent Right ascension
Unknown
Apparent Declination
Unknown
Sunlit
N/A
Visualization observer readout
Local Sidereal Time
20:14:43
Azimuth
Unknown
Elevation
Unknown
Doppler factor
Unknown
Orbital elements
Apogee altitude
544.17 km
Perigee altitude
537.327 km
Semi-major axis
6,918.885 km
Eccentricity
0.00049
Inclination
98.1159°
RAAN
285.6859°
Arg. of periapsis
297.2509°
True anomaly
62.87182°
Mean anomaly
62.8214°
Eccentric anomaly
62.84661°
Mean motion
3.77128 °/min
Orbital period
95.46 mins
BSTAR
0.00055729
Loading maneuver chart data...
Computing Atmospheric mass density...
Loading historical data...
Loading historical data...
Loading historical data...
Loading historical data...
Loading historical data...
Loading historical data...
Loading historical data...

Documentation

Showing up to 5 results
|